Regional Weather Roundup
Issued by NWS

Home | Current Version | Previous Version | Text Only | Print | Product List | Glossary Off
Versions: 1 2 3 4 5 6 7 8 9 10 11 12 13 14 15 16 17 18 19 20 21 22 23 24 25 26 27 28 29 30 31 32 33 34 35 36 37 38 39 40 41 42 43 44 45 46 47 48 49 50

000
ASUS43 KOAX 301510
RWRNE

WEATHER ROUNDUP FOR NEBRASKA
NATIONAL WEATHER SERVICE OMAHA NE
1000 AM CDT WED JUL 30 2014

NOTES: SATELLITE DATA IS BEING USED TO AUGMENT CLOUD COVER ABOVE
       12000 FEET.
       "FAIR" INDICATES FEW OR NO CLOUDS BELOW 12,000 FEET WITH NO
       SIGNIFICANT WEATHER AND/OR OBSTRUCTIONS TO VISIBILITY.

  * THESE STATIONS DO NOT REPORT WEATHER SUCH AS RAIN...SNOW OR FOG.

NEZ001>004-019>022-054>056-301600-
NEBRASKA PANHANDLE

CITY           SKY/WX    TMP DP  RH WIND       PRES   REMARKS
SCOTTSBLUFF    PTSUNNY   69  59  70 CALM      30.28S
ALLIANCE       PTSUNNY   68  56  65 CALM      30.27S
CHADRON        PTSUNNY   68  57  68 W9        30.25S
KIMBALL        CLOUDY    63  60  93 NE7       30.30S
SIDNEY         CLOUDY    64  60  87 E5        30.30R
$$

NEZ057>060-069>072-079>082-301600-
SOUTHWEST NEBRASKA

CITY           SKY/WX    TMP DP  RH WIND       PRES   REMARKS
NORTH PLATTE   MOSUNNY   73  60  63 VRB3      30.22S
IMPERIAL       CLOUDY    65  60  84 NE5       30.25R
LEXINGTON      MOSUNNY   71  58  62 CALM      30.20S
MCCOOK         CLOUDY    67  62  84 NE6       30.22R
OGALLALA       PTSUNNY   67  60  78 CALM      30.24S
$$

NEZ005>010-023>029-035>040-094-301600-
NORTH CENTRAL NEBRASKA

CITY           SKY/WX    TMP DP  RH WIND       PRES   REMARKS
VALENTINE      SUNNY     71  53  52 CALM      30.22S
AINSWORTH      SUNNY     71  52  51 NW3       30.22S
BROKEN BOW     SUNNY     71  59  65 SW6       30.21S
O`NEILL        SUNNY     70  58  65 CALM      30.19S
ORD            SUNNY     70  61  73 CALM      30.19S
THEDFORD       MOSUNNY   72  56  58 CALM      30.24S
$$

NEZ041-046>049-061>064-073>077-083>087-301600-
SOUTH CENTRAL NEBRASKA

CITY           SKY/WX    TMP DP  RH WIND       PRES   REMARKS
GRAND ISLAND   SUNNY     71  55  56 CALM      30.19S
AURORA         SUNNY     71  57  61 E3        30.18S
HASTINGS       MOSUNNY   72  52  49 E5        30.18S
HEBRON         PTSUNNY   69  56  65 E3        30.17R
HOLDREGE       PTSUNNY   68  58  68 NE3       30.20S
KEARNEY *      MOSUNNY   72  55  56 E7        30.20S
YORK           SUNNY     72  59  64 NE3       30.18S
$$

NEZ011>018-030>034-042>045-301600-
NORTHEAST NEBRASKA

CITY           SKY/WX    TMP DP  RH WIND       PRES   REMARKS
NORFOLK        MOSUNNY   72  55  55 N5        30.18S
ALBION           N/A    N/A N/A N/A MISG        N/A
BLAIR          SUNNY     69  56  62 N6        30.16S
COLUMBUS *     PTSUNNY   48 N/A N/A N3        30.18S
FREMONT        SUNNY     72  59  63 NW3       30.17S
TEKAMAH        SUNNY     71  57  61 N7        30.16S
WAYNE          MOSUNNY   69  62  77 CALM      30.18S
$$

NEZ050>053-065>068-078-088>093-301600-
SOUTHEAST NEBRASKA

CITY           SKY/WX    TMP DP  RH WIND       PRES   REMARKS
LINCOLN        SUNNY     75  56  51 VRB6      30.17S
OMAHA EPPLEY   MOSUNNY   71  58  63 N6        30.16S
BEATRICE       MOSUNNY   73  56  56 E6        30.15S
FALLS CITY     PTSUNNY   74  56  53 NE7       30.13F
NEBRASKA CITY  SUNNY     70  56  61 NE6       30.16S
PLATTSMOUTH    SUNNY     71  57  62 NE7       30.16S
$$

NEZ044-045-051>053-067-301600-
OMAHA AREA

CITY           SKY/WX    TMP DP  RH WIND       PRES   REMARKS
OMAHA EPPLEY   MOSUNNY   71  58  63 N6        30.16S
BLAIR          SUNNY     69  56  62 N6        30.16S
FREMONT        SUNNY     72  59  63 NW3       30.17S
MILLARD        SUNNY     72  58  61 CALM      30.15F
OFFUTT AFB     SUNNY     72  62  70 VRB3      30.15S
PLATTSMOUTH    SUNNY     71  57  62 NE7       30.16S
WAHOO          FAIR      71  60  67 CALM      30.16S
$$


USA.gov is the U.S. government's official web portal to all federal, state and local government web resources and services.